Location: Bonac
(42.8765°N, 0.9753°E)
Time: 16:13:13
(UTC+00:00)

Cosmos 1953 - Pass Details

Date: 13 April 2026
Orbit: 471 x 483 km, 82.5° (Epoch: 14 May)

Event Time Altitude Azimuth Distance (km) Brightness Sun altitude
Rises 20:17:10 0° 236° (SW) 2,510 6.0 -17.9°
Reaches altitude 10° 20:20:42 10° 274° (W) 1,643 5.6 -18.4°
Maximum altitude 20:21:46 11° 291° (WNW) 1,580 5.8 -18.6°
Drops below altitude 10° 20:22:51 10° 309° (NW) 1,649 6.0 -18.7°
Sets 20:26:25 0° 346° (NNW) 2,538 6.5 -19.3°
